Showing default

KUIPER-00204, 67145

Orbit data source: Space-Track

KUIPER-00204, 67145 is a payload satellite owned by Kuiper Systems (US) in LEO that was launched on Mon, 15 Dec 2025 UTC via an ATLAS V 551 launch vehicle from the Air Force Eastern Test Range (AFETR). Payload-class satellites include a variety of spacecraft equipped with specific instruments for various scientific and technological missions. These include communications satellites like Starlink; space stations such as the ISS; scientific satellites like the Hubble; Earth observation satellites from companies like Planet Labs, Umbra, and HawkEye 360; GPS; miniature CubeSats for education and research; and military/defense satellites.

Loading next visibility...
Identifier
67145, 2025-301N
Orbit
LEO
Country
Flag of USUS
Related business
Manufacturer
Kuiper Systems
Mission
Operational Commercial Communications
Bus & Motor
KUIPER, Unknown motor
Mass
~490 kg wet, ~490 kg dry
Launch date (UTC)
2025-12-15 (6 months ago)
Launch vehicle
ATLAS V 551
Launch site
Air Force Eastern Test Range (AFETR)
Object type
Payload
Rocket body
Debris
Shape & HBR
Box + 2 Pan, 3.4 m
Radar Cross Section
2.326 m², Large (>1 m²)

Expand to show TLE details & history
Last TLE update: 1 day ago

TLE from 1 day ago
0 KUIPER-00204
1 67145U 25301N   26170.78599925  .00002914  00000-0  41140-3 0  9993
2 67145  51.9018 314.1622 0000365 164.5992 195.4982 14.79901106 29241
Epoch: 2026-06-19T18:51Z
TLE epoch observation values (Epoch: 2026-06-19T18:51:50.335Z)
Latitude
0.00003°
Longitude
123.19251°
Altitude
630.63 km
Speed
7.544 km/s
True Right ascension
20h 56m 38s
True Declination
0° 00' 00"
Sunlit
Object was in full shadow at epoch
Visualization orbit readout
Latitude
Unknown
Longitude
Unknown
Altitude
Unknown
Speed
Unknown
Apparent Right ascension
Unknown
Apparent Declination
Unknown
Sunlit
N/A
Visualization observer readout
Local Sidereal Time
07:12:43
Azimuth
Unknown
Elevation
Unknown
Doppler factor
Unknown
Orbital elements
Apogee altitude
630.343 km
Perigee altitude
629.831 km
Semi-major axis
7,008.224 km
Eccentricity
0.00004
Inclination
51.9018°
RAAN
314.1622°
Arg. of periapsis
164.5992°
True anomaly
195.49708°
Mean anomaly
195.4982°
Eccentric anomaly
195.49764°
Mean motion
3.6994 °/min
Orbital period
97.31 mins
BSTAR
0.0004114
Loading maneuver chart data...
Computing Atmospheric mass density...
Loading historical data...
Loading historical data...
Loading historical data...
Loading historical data...
Loading historical data...
Loading historical data...
Loading historical data...

Documentation

Showing up to 5 results
|